Погода в Заиграеве

Россия / Республика Бурятия     51°50′06″N   108°16′02″E
темп.,
°C
ветер,
м/с
пор.,
м/с
влажн.,
%
обл.,
%
осадки,
мм/ч
давл.,
гПа
погр.,
м
6 марта, сб
сб623:00−19св119898 0.0 103020
02:00−21ссв119996 0.0 102920
05:00−21с119992 0.0 102820
08:00−18з119596 0.0 103029
11:00−9зюз127726 0.0 1029333
14:00−4з247113 0.0 1026553
17:00−3зсз137732 0.0 1025474
20:00−9юз129034 0.0 102621
7 марта, вс
вс723:00−12ю228820 0.0 102621
02:00−14ююв118710 0.0 102621
05:00−16вюв11890 0.0 102520
08:00−15в119121 0.0 102520
11:00−6св118072 0.0 1022298
14:00−2св118346 0.0 1019430
17:00−1ссв118332 0.0 1017274
20:00−8юз019350 0.0 101921
8 марта, пн
пн823:00−9ююз1289100 0.0 102021
02:00−9зюз1190100 0.0 102021
05:00−11з1192100 0.0 102021
08:00−11зюз119267 0.0 102321
11:00−3з247920 0.0 1022421
14:000зсз487616 0.0 10221038
17:00−1зсз597940 0.0 1023947
20:00−8зюз239120 0.0 102824
9 марта, вт
вт923:00−10юз23890 0.0 102928
02:00−12юв01900 0.0 102821
05:00−14всв12922 0.0 102720
08:00−14св11941 0.0 102623
11:00−7св228041 0.0 1022330
14:00−3ссв228167 0.0 1019400
17:00−3ссз2288100 0.0 1018259
20:00−8з1194100 0.0 102121
10 марта, ср
ср1023:00−7з2293100 0.0 102324
02:00−9з229177 0.0 102522
05:00−10зюз23906 0.0 102830
08:00−10юз23933 0.0 103045
11:00−3з25660 0.0 1030619
14:00−1з24630 0.0 1028887
17:00−1зсз126417 0.0 1026706
20:00−8ююв11838 0.0 102721